Location: CNYAC Observatory
(43.2150°N, 74.9500°W)
Time: 04:51:10
(UTC-05:00)

Daily predictions for brighter satellites

Satellite Brightness Start Highest point End
(mag) Time Altitude Azimuth Time Altitude Azimuth Time Altitude Azimuth
Cosmos 2056 Rocket 4.4 04:19:12 45° ENE 04:19:12 45° ENE 04:23:47 10° SE
SL-16 R/B 3.9 04:27:06 22° NNE 04:27:06 22° NNE 04:29:06 10° NNE
USA 215 4.2 04:21:25 10° ENE 04:27:34 42° SE 04:32:45 14° SSW
ADEOS II 4.4 04:24:39 10° N 04:25:04 12° N 04:25:04 12° N
Cosmos 1624 Rocket 4.3 04:32:25 66° ENE 04:32:25 66° ENE 04:37:37 10° SSE
COSMO-SKYMED 1 4.2 04:29:04 10° SE 04:32:54 31° ENE 04:34:13 26° NE
Cosmos 44 Rocket 4.3 04:34:58 32° S 04:36:55 47° ESE 04:41:50 10° NE
Cosmos 1371 Rocket 4.2 04:38:36 62° SSE 04:38:36 62° SSE 04:42:56 10° SSE
CENTAUR R/B 3.5 04:41:19 35° NNW 04:41:19 35° NNW 04:46:25 10° NNE
USA 32 4.3 04:43:48 58° S 04:43:48 58° S 04:47:59 10° S
SL-08 ROCKET BODY 4.2 04:39:27 10° S 04:45:25 84° W 04:51:20 10° N
Lacrosse 5 2.2 04:44:47 54° S 04:45:31 61° SE 04:50:33 10° NE
Cosmos 1300 Rocket 4.1 04:44:52 10° S 04:49:11 56° E 04:53:31 10° NNE
Cosmos 2237 Rocket 4.5 04:56:10 10° N 04:56:10 10° N 04:56:13 10° N
Cosmos 2327 Rocket 4.4 04:55:10 10° SSW 05:01:30 69° W 05:07:47 10° N
Meteor 1-13 Rocket 4.4 04:56:15 12° N 05:01:51 78° E 05:07:46 10° SSE
Cosmos 1452 Rocket 4.2 05:04:23 18° N 05:08:07 53° ENE 05:13:17 10° SE
Cosmos 2074 Rocket 4.0 05:04:49 10° SSW 05:10:57 55° WNW 05:17:06 10° N
Tiangong 2 2.0 05:13:30 46° ESE 05:13:30 46° ESE 05:15:51 10° ESE
Meteor 2-4 Rocket 4.2 05:09:48 10° N 05:15:16 59° ENE 05:20:51 10° SSE
Cosmos 2369 Rocket 2.2 05:14:29 24° NNW 05:18:06 80° ENE 05:23:47 10° SSE
Cosmos 2341 Rocket 4.3 05:13:06 10° S 05:19:19 68° E 05:25:32 10° NNE
CRYOSAT 2 4.2 05:15:12 10° S 05:20:03 68° W 05:24:48 11° N
SKYMED 2 3.4 05:16:30 10° S 05:20:50 80° WSW 05:22:50 32° NNW
Cosmos 1603 3.7 05:19:00 31° WSW 05:21:32 54° WNW 05:27:05 10° NNE
SJ-6F 4.3 05:21:18 10° N 05:25:19 58° WNW 05:29:18 10° SSW
NOAA 6 3.9 05:23:49 10° N 05:28:52 62° WNW 05:33:55 10° SSW
Cosmos 2184 Rocket 4.3 05:23:31 10° SW 05:29:17 41° WNW 05:35:09 10° N
Cosmos 44 3.5 05:26:13 10° SSW 05:31:35 81° ESE 05:36:47 10° NE
SL-23 DEB 4.0 05:33:08 39° N 05:33:44 45° NNE 05:37:06 10° ESE
Cosmos 1536 2.7 05:37:22 10° SSW 05:41:21 74° W 05:45:23 10° N
USA 229 DEB 4.1 05:35:29 10° SSW 05:42:16 66° ESE 05:49:10 10° NE
USA 229 4.1 05:35:36 10° SSW 05:42:22 66° ESE 05:49:15 10° NE
USA 129 3.0 05:40:28 10° SSE 05:42:29 39° ENE 05:42:56 34° NE
Cosmos 1025 Rocket 2.9 05:38:12 10° N 05:42:37 85° W 05:46:58 10° S
CZ-4 R/B 3.1 05:39:17 10° NNE 05:42:53 34° E 05:46:27 10° SSE
Cosmos 1943 3.1 05:38:52 10° SSW 05:44:29 75° WNW 05:50:10 10° NNE
Cosmos 2154 Rocket 4.0 05:39:02 10° SSW 05:45:08 60° W 05:51:17 10° N
Cosmos 1633 3.2 05:47:57 10° SW 05:51:17 33° WNW 05:54:38 10° N
Cosmos 1943 Rocket 2.3 05:50:56 10° NNW 05:56:27 77° ENE 06:01:58 10° SSE
Abrixas rocket 2.4 05:55:52 31° W 05:57:14 56° NNW 06:00:34 10° ENE
Cosmos 1420 Rocket 4.0 05:56:10 10° NNW 06:01:27 90° ENE 06:06:40 10° SSE
Okean 1 Rocket 3.8 05:58:56 10° SW 06:02:46 29° WNW 06:06:37 10° NNW
CZ-3 R/B 3.6 05:59:08 10° SW 06:04:28 16° SSW 06:07:26 10° SSE
Lacrosse 5 rocket 3.7 06:02:34 10° NNW 06:04:50 14° N 06:07:08 10° NE
Cosmos 1544 Rocket 3.7 06:00:37 10° S 06:04:58 77° E 06:09:22 10° N
Lacrosse 4 Rocket 2.0 06:02:52 10° NNW 06:06:59 55° ENE 06:10:58 10° SE
SL-16 R/B 4.0 06:09:01 12° NW 06:09:01 12° NW 06:10:54 10° NNW
COSMO-SKYMED 1 3.7 06:05:32 10° SSW 06:09:04 24° W 06:11:25 16° NW
USA 215 3.3 06:04:17 10° NE 06:10:43 63° NNW 06:17:08 10° WSW
Ariane Rocket 3.2 06:07:03 10° N 06:11:53 46° WNW 06:16:42 10° SW
SL-8 Rocket 3.9 06:08:14 10° SSW 06:14:29 76° W 06:20:44 10° N
CZ-2C R/B 3.0 06:09:50 10° NNE 06:14:59 65° E 06:19:59 10° S
SPOT 3 Rocket 4.3 06:10:02 10° NNE 06:15:07 58° ESE 06:20:11 10° S
Cosmos 1048 Rocket 4.0 06:11:26 10° SSW 06:16:33 85° ESE 06:21:46 10° NNE
Cosmos 44 Rocket 4.2 06:14:10 10° WSW 06:18:40 29° NW 06:23:07 10° NNE
Cosmos 1656 Rocket 4.4 06:13:29 10° NNW 06:19:03 56° ENE 06:24:38 10° SE
AQUARIUS 4.4 06:18:45 10° NNE 06:23:16 76° ESE 06:27:45 10° S
Meteor 1-29 3.3 06:21:32 10° SSE 06:24:52 65° ENE 06:28:14 10° N
Cosmos 1500 4.2 06:21:48 10° S 06:25:26 49° E 06:29:06 10° NNE
Cosmos 1975 3.3 06:22:34 10° S 06:26:37 68° E 06:30:44 10° NNE
Cosmos 2366 rocket 4.0 06:20:42 10° S 06:27:00 83° W 06:33:23 10° N
Cosmos 1959 Rocket 4.4 06:22:06 10° SSW 06:28:11 71° W 06:34:18 10° N
Cosmos 1892 Rocket 3.9 06:24:13 10° NNW 06:28:32 48° W 06:32:49 10° SSW
Lacrosse 5 2.7 06:24:10 10° W 06:28:47 33° NNW 06:33:23 10° NE
CENTAUR R/B 4.3 06:28:37 10° NW 06:32:49 17° NNW 06:37:18 10° NNE
Helios 1B rocket 2.4 06:28:54 10° S 06:33:02 75° WSW 06:37:13 10° NNW
Cosmos 405 Rocket 4.4 06:31:18 10° N 06:34:48 34° ENE 06:38:14 10° SE
Cosmos 2218 Rocket 4.1 06:29:00 10° SSW 06:35:21 64° W 06:41:43 10° N
MOS 1 4.3 06:33:48 10° NNE 06:39:29 88° WNW 06:45:08 10° SSW
Cosmos 1340 3.6 06:37:41 10° NNW 06:41:00 29° W 06:44:18 10° SSW
IDEFIX/ARIANE 42P 2.5 06:35:56 10° N 06:41:09 78° WNW 06:46:20 10° SSW
Cosmos 1626 Rocket 3.7 06:37:04 10° N 06:41:31 82° E 06:45:54 10° S
CSL-04 Rocket 4.3 06:37:17 10° N 06:42:15 35° WNW 06:47:10 10° SW
Cosmos 1461 3.1 06:40:54 10° SSW 06:45:14 79° ESE 06:49:24 10° NE
Tiangong 2 2.5 06:46:17 10° W 06:49:04 29° SSW 06:51:51 10° SE
SJ-7 4.5 06:45:01 10° N 06:49:07 59° WNW 06:53:08 10° SSW
SL-27 R/B 2.6 06:46:00 10° SSW 06:49:32 83° ESE 06:53:11 10° NNE
